Flag for Lithuania Weather past 2 weeks in Kaunas, Lithuania

27 °F

Passing clouds.

Feels Like: 17 °F
Forecast: 27 / 33 °F
Wind: 9 mph from Southeast

Location: Kaunas

Current Time: Nov 26, 2015 at 5:59:17 AM

Latest Report: Nov 26, 2015 at 4:50 AM

Visibility: N/A

Pressure: 29.86 "Hg

Humidity: 80%

Dew point: 21 °F

Location of KaunasLocation

Historic Weather in Kaunas — Graph


Kaunas temperature yesterday

Maximum temperature yesterday: 34 °F (at 12:50 PM)
Minimum temperature yesterday: 28 °F (at 6:50 PM)
Average temperature yesterday: 30 °F

Past Weeks' High & Low Weather Summary

High54 °F (Nov 11, 11:50 AM)100% (Nov 11, 4:20 AM)30.18 "Hg (Nov 11, 4:20 AM)
Low27 °F (Nov 26, 1:20 AM)63% (Nov 11, 3:20 PM)29.27 "Hg (Nov 20, 11:20 AM)
Average41 °F90%29.71 "Hg
* Reported Nov 11 4:20 AM — Nov 26 4:20 AM, Kaunas, Weather by CustomWeather, © 2015

Note: Actual official high and low records may vary slightly from our data, if they occured in-between our weather recording intervals... More about our weather records


Kaunas weather history for previous 24 hours

Time TempWeatherWind HumidityBarometerVisibility
4:20 AM
Thu, Nov 26
27 °FClear.9 mph80%29.86 "Hg10 mi
3:50 AM27 °FClear.9 mph80%29.86 "Hg10 mi
3:20 AM27 °FPassing clouds.9 mph80%29.86 "HgN/A
2:20 AM27 °FChilly.12 mph80%29.89 "HgN/A
1:50 AM27 °FChilly.10 mph80%29.89 "HgN/A
1:20 AM27 °FChilly.10 mph80%29.89 "HgN/A
12:50 AM28 °FPassing clouds.12 mph74%29.89 "HgN/A
12:20 AM28 °FChilly.12 mph74%29.89 "HgN/A
11:50 PM
Wed, Nov 25
28 °FPassing clouds.12 mph74%29.89 "HgN/A
11:20 PM28 °FClear.10 mph74%29.89 "Hg10 mi
10:50 PM28 °FPassing clouds.10 mph74%29.89 "HgN/A
10:20 PM28 °FClear.12 mph74%29.89 "Hg10 mi
9:50 PM28 °FPassing clouds.12 mph74%29.89 "HgN/A
9:20 PM28 °FPassing clouds.10 mph74%29.89 "HgN/A
8:50 PM28 °FPassing clouds.13 mph74%29.89 "HgN/A
8:20 PM28 °FClear.12 mph74%29.89 "Hg10 mi
7:50 PM28 °FClear.10 mph74%29.89 "Hg10 mi
7:20 PM28 °FClear.12 mph74%29.89 "Hg10 mi
6:50 PM28 °FClear.10 mph74%29.89 "Hg10 mi
6:20 PM30 °FClear.12 mph69%29.89 "Hg10 mi
5:50 PM30 °FClear.10 mph69%29.92 "Hg10 mi
5:20 PM30 °FClear.9 mph75%29.92 "Hg10 mi
4:50 PM30 °FClear.9 mph75%29.92 "Hg10 mi
4:20 PM32 °FPassing clouds.10 mph69%29.92 "HgN/A
3:50 PM32 °FPassing clouds.9 mph69%29.92 "HgN/A
3:20 PM34 °FPassing clouds.10 mph65%29.92 "HgN/A
2:50 PM34 °FScattered clouds.10 mph70%29.92 "HgN/A
2:20 PM34 °FScattered clouds.9 mph70%29.92 "HgN/A
1:50 PM34 °FPassing clouds.10 mph70%29.95 "HgN/A
1:20 PM34 °FPassing clouds.13 mph70%29.95 "HgN/A
12:50 PM34 °FPassing clouds.10 mph70%29.95 "HgN/A
12:20 PM32 °FPassing clouds.9 mph75%29.98 "HgN/A
11:50 AM32 °FPassing clouds.10 mph75%29.98 "HgN/A
11:20 AM32 °FSunny.10 mph75%29.98 "Hg10 mi
10:50 AM32 °FPassing clouds.9 mph75%29.98 "HgN/A
10:20 AM30 °FPassing clouds.10 mph80%29.98 "HgN/A
9:50 AM30 °FPassing clouds.9 mph80%30.01 "HgN/A
9:20 AM30 °FPassing clouds.8 mph80%30.01 "HgN/A
8:50 AM30 °FPassing clouds.10 mph80%30.01 "HgN/A
8:20 AM30 °FSunny.9 mph80%30.01 "Hg10 mi
7:50 AM30 °FClear.10 mph80%30.01 "Hg10 mi
7:20 AM30 °FPassing clouds.9 mph80%30.01 "HgN/A
6:50 AM30 °FPassing clouds.9 mph80%30.01 "HgN/A
6:20 AM30 °FPassing clouds.9 mph80%30.01 "HgN/A
5:20 AM30 °FPassing clouds.7 mph80%30.01 "HgN/A
Weather by CustomWeather, © 2015

See weather overviewHow to use our weather pages